Temperature
9 9 8 8 8 8 7 9 9 11 11 11 10 10 9 7 7 6 6 6 6 6 6 6 6 6 6 6 6 6 6 6 6 5 5 5 5 5 5 5 5 5 5 5
7 8 7 7 8 8 8 8 9 9 9 10 9 8 7 7 6 6 6 6 6 6 6 6 6 6 6 6 6 6 6 5 5 5 5 5 5 5 5 5 5 5 5 5
7 7 7 7 8 8 7 7 8 8 9 8 8 7 7 7 6 6 6 5 5 5 6 6 6 6 6 6 5 5 5 5 5 5 5 5 5 5 5 4 4 4 4 4
6 6 6 9 7 7 7 7 7 7 7 7 7 6 6 6 6 6 5 5 5 5 5 6 5 5 5 5 5 5 5 5 5 5 4 4 4 4 4 4 4 4 4 4
5 6 8 8 6 6 6 6 6 6 6 6 5 5 6 5 5 5 5 5 5 5 5 5 5 5 5 5 5 4 4 4 4 4 4 4 4 4 4 4 4 4 3 3
5 6 6 8 6 5 6 6 6 5 5 5 5 7 7 5 5 5 5 5 5 5 5 5 5 5 4 4 4 4 4 4 4 4 4 4 4 3 3 3 3 3 3 3
5 5 6 6 4 5 6 7 5 4 4 4 5 5 4 4 4 4 4 5 5 4 4 4 4 4 4 4 4 4 4 4 4 4 3 3 3 3 3 3 3 3 3 2
4 4 5 4 3 5 5 4 4 3 3 3 3 3 3 3 3 3 4 4 4 4 4 4 4 4 4 4 3 3 3 3 3 3 3 3 3 3 2 2 2 2 2 2
4 5 4 3 3 3 3 3 3 3 3 3 2 2 2 2 2 3 3 3 3 3 3 3 3 3 3 3 3 3 2 2 2 2 2 2 2 2 2 2 2 2 1 1
2 3 2 2 2 2 2 2 2 2 2 2 2 1 1 1 2 2 2 2 2 2 2 2 2 2 2 2 2 2 2 2 2 2 2 2 2 1 1 1 1 1 1 1
2 2 2 2 2 2 2 2 2 2 1 1 1 1 1 1 1 1 1 1 1 2 2 2 2 2 2 1 2 2 2 1 1 1 1 1 1 1 1 1 1 1 1 1
2 2 2 2 1 1 1 1 1 1 1 1 1 0 0 0 0 0 0 0 1 1 1 1 1 1 1 1 1 1 1 1 1 1 1 1 1 1 1 1 1 0 0 0
1 1 0 0 0 0 0 0 0 0 0 -0 -0 -0 -0 -0 -0 -0 -0 -0 -0 0 0 0 0 0 0 0 0 0 0 0 0 0 0 0 0 0 0 0 0 -0 -0 -0
-0 -0 -0 -0 -0 -0 -0 -0 -0 -0 -0 -1 -1 -1 -1 -1 -1 -1 -1 -1 -1 -1 -1 -0 -0 -0 -0 -0 -0 -0 -0 -0 -0 -0 -0 -0 -0 -0 -0 -1 -1 -1 -1 -1
-2 -1 -1 -1 -1 -1 -1 -1 -1 -1 -1 -1 -1 -1 -1 -1 -1 -1 -1 -1 -1 -1 -1 -1 -1 -1 -1 -1 -1 -1 -1 -1 -1 -1 -1 -1 -1 -1 -1 -1 -1 -1 -1 -1
-2 -2 -2 -2 -2 -2 -2 -2 -2 -2 -2 -2 -2 -2 -2 -2 -2 -2 -2 -2 -2 -2 -2 -2 -2 -2 -2 -2 -1 -1 -1 -1 -2 -2 -2 -2 -2 -2 -2 -2 -2 -2 -2 -2
-3 -3 -3 -3 -3 -3 -3 -3 -3 -3 -3 -2 -2 -2 -2 -2 -2 -2 -2 -2 -2 -2 -2 -2 -2 -2 -2 -2 -2 -2 -2 -2 -2 -2 -2 -2 -3 -3 -3 -3 -3 -3 -3 -3
-3 -3 -3 -4 -4 -3 -3 -3 -3 -3 -3 -3 -3 -3 -3 -3 -3 -3 -3 -3 -3 -3 -3 -3 -3 -3 -3 -3 -3 -3 -3 -3 -3 -3 -3 -3 -3 -3 -3 -3 -3 -3 -3 -3
-4 -4 -4 -4 -4 -4 -4 -4 -4 -4 -4 -3 -3 -3 -3 -3 -3 -3 -3 -3 -3 -3 -3 -3 -3 -3 -4 -4 -4 -4 -4 -4 -4 -4 -4 -4 -4 -4 -4 -4 -4 -4 -4 -4
-4 -4 -4 -4 -4 -4 -4 -4 -4 -4 -4 -4 -4 -4 -4 -4 -4 -4 -4 -4 -4 -4 -4 -4 -4 -4 -4 -4 -4 -4 -4 -4 -4 -4 -4 -5 -5 -5 -5 -5 -5 -5 -5 -5
-5 -5 -5 -5 -5 -5 -5 -5 -5 -5 -5 -5 -5 -5 -5 -4 -4 -4 -4 -4 -4 -4 -4 -4 -4 -4 -4 -5 -5 -5 -5 -5 -5 -5 -5 -5 -5 -5 -5 -5 -5 -6 -6 -6
-6 -6 -6 -5 -5 -5 -5 -5 -5 -5 -5 -5 -5 -5 -5 -5 -5 -5 -5 -5 -5 -5 -5 -5 -5 -5 -5 -5 -5 -5 -5 -5 -6 -6 -6 -6 -6 -6 -6 -6 -6 -6 -6 -6
-6 -6 -6 -6 -6 -6 -6 -6 -6 -6 -6 -6 -6 -6 -6 -6 -6 -6 -6 -5 -6 -6 -6 -6 -6 -6 -6 -6 -6 -6 -6 -6 -6 -6 -6 -6 -6 -6 -6 -6 -6 -7 -7 -7
-7 -7 -7 -7 -7 -7 -7 -7 -7 -7 -6 -6 -6 -6 -6 -6 -6 -6 -6 -6 -6 -6 -6 -6 -6 -6 -6 -6 -6 -6 -6 -6 -6 -6 -6 -7 -7 -7 -7 -7 -7 -7 -7 -7
-8 -8 -7 -7 -7 -8 -8 -7 -7 -7 -7 -7 -7 -7 -7 -7 -7 -7 -7 -7 -7 -7 -7 -7 -7 -7 -7 -7 -7 -7 -7 -7 -7 -7 -7 -7 -7 -7 -7 -7 -7 -7 -7 -7
-8 -8 -8 -8 -8 -8 -8 -8 -8 -8 -8 -8 -8 -8 -8 -8 -8 -7 -7 -7 -7 -7 -7 -7 -7 -7 -7 -7 -7 -7 -7 -7 -7 -7 -7 -7 -7 -7 -7 -7 -7 -7 -7 -7
-9 -9 -9 -9 -9 -9 -9 -9 -9 -9 -9 -9 -9 -9 -8 -8 -8 -8 -8 -8 -8 -8 -8 -8 -8 -8 -8 -8 -8 -8 -8 -8 -8 -8 -8 -8 -8 -8 -8 -8 -8 -8 -8 -8
Wind_Speed
13 10 8 11 13 14 16 16 13 14 15 15 10 8 7 5 4 3 3 4 5 5 5 5 5 6 6 6 5 6 6 6 6 5 5 4 4 4 4 4 4 4 5 5
9 9 10 13 15 17 18 18 19 20 18 12 9 6 5 5 4 4 4 4 5 5 5 5 6 5 6 6 5 5 6 5 5 5 5 5 4 4 4 4 4 4 5 5
8 5 6 11 11 14 12 11 11 14 12 8 6 6 6 5 5 5 5 5 5 5 5 5 5 5 6 5 5 5 5 4 4 4 5 5 4 4 4 4 4 5 5 5
5 4 10 4 1 5 9 9 9 9 7 6 7 6 6 5 5 5 5 4 5 5 4 4 4 4 4 5 5 5 5 4 4 5 4 4 4 5 5 4 4 5 5 5
5 7 10 5 2 4 6 5 5 8 8 7 5 4 4 3 4 5 5 4 4 4 4 4 4 5 4 5 5 5 5 5 5 5 5 4 4 5 4 4 4 5 5 5
6 7 7 3 1 1 4 4 1 4 5 5 3 4 4 5 5 5 4 3 2 3 3 3 4 5 5 5 5 5 5 5 5 5 5 5 4 4 4 4 5 4 4 5
10 9 6 3 1 3 4 2 2 2 3 2 3 5 5 5 5 4 3 2 2 2 2 3 4 5 5 5 6 5 4 4 4 4 4 4 4 3 4 4 4 4 4 4
7 8 7 1 3 3 2 3 2 1 2 3 4 4 4 4 4 3 2 2 1 1 2 2 3 4 4 5 4 3 3 4 4 3 3 3 4 3 3 3 4 4 4 4
5 4 2 2 1 1 2 2 3 3 3 3 4 4 4 4 4 3 2 2 1 1 2 2 2 4 4 4 3 3 4 4 4 3 3 4 4 4 3 3 4 4 4 4
3 3 3 2 2 3 3 3 4 4 3 3 4 4 4 4 3 3 2 2 2 2 2 2 2 3 3 3 4 4 4 4 4 4 3 3 3 4 4 4 4 4 4 4
6 5 4 3 4 5 5 4 4 4 4 4 4 4 4 4 4 3 2 2 2 2 2 2 2 2 2 2 3 4 4 3 3 3 3 3 3 4 5 5 5 5 5 4
6 5 5 6 6 5 5 5 5 5 5 4 3 4 4 3 3 2 2 2 1 2 2 2 2 2 2 2 3 3 3 3 3 3 3 3 3 3 4 6 6 8 8 7
7 6 6 8 7 6 6 6 6 5 4 5 4 3 3 3 2 2 2 2 2 2 3 3 3 3 3 2 3 4 4 4 3 3 3 3 3 4 3 3 5 7 8 9
6 6 7 7 7 6 6 5 4 4 3 3 3 3 2 3 3 3 3 3 3 3 3 3 3 4 3 2 3 3 4 4 4 4 4 4 4 4 4 4 4 4 5 7
5 5 5 5 4 4 4 3 3 4 4 4 3 3 2 2 3 3 3 3 3 3 3 3 4 4 3 3 3 3 3 3 3 4 4 4 4 4 4 5 5 4 4 4
4 3 3 3 4 5 4 4 4 5 4 4 3 3 3 3 3 3 3 3 3 3 4 4 4 4 3 3 3 3 3 4 4 4 4 4 4 4 5 5 5 5 5 4
3 3 4 4 5 5 5 5 5 6 5 4 4 4 4 4 4 4 4 4 4 5 5 5 5 4 3 3 3 3 3 3 4 4 4 4 4 5 5 5 5 5 5 5
3 4 4 5 5 5 6 6 5 5 5 5 5 4 4 4 5 5 5 4 4 5 5 5 4 4 4 4 3 3 3 3 3 4 4 4 4 5 5 5 5 6 5 5
5 5 5 5 5 5 5 5 5 5 5 4 4 5 5 5 5 5 4 4 5 6 5 4 4 4 4 4 4 3 4 4 4 4 4 5 5 5 5 5 6 6 6 5
6 6 6 5 5 5 5 5 5 5 5 4 4 5 5 5 5 5 4 5 5 5 5 5 5 4 4 4 4 4 4 5 5 5 5 5 5 6 6 6 6 6 6 6
7 7 7 6 6 6 5 5 5 5 5 4 5 6 6 6 5 4 4 5 5 5 5 6 4 4 4 4 5 4 4 5 5 5 5 6 6 6 6 6 6 6 6 6
7 7 7 7 7 7 6 5 5 6 6 5 5 5 6 6 6 5 5 5 5 6 5 4 4 5 6 6 5 5 5 5 5 5 5 6 6 6 6 6 6 6 6 6
7 7 7 7 7 7 7 6 5 5 6 6 6 6 6 6 5 4 5 4 4 6 6 5 6 8 9 6 5 5 5 6 5 5 5 5 5 5 6 6 6 6 6 6
7 7 7 7 7 6 7 7 6 5 6 6 6 6 5 5 5 4 5 6 7 8 6 7 9 9 9 5 5 5 5 6 6 6 6 5 5 5 6 6 6 6 6 7
7 7 7 7 6 6 7 7 7 6 6 5 6 6 5 4 5 5 5 6 7 8 6 7 9 9 6 5 5 5 5 5 6 6 6 6 6 6 6 6 6 6 6 6
7 6 6 6 6 6 5 5 5 5 5 5 6 5 5 4 5 5 5 6 7 8 7 6 6 6 5 5 5 6 6 6 6 6 6 6 6 6 6 6 7 6 6 6
6 6 5 5 5 5 5 5 5 6 6 6 7 6 6 6 5 5 6 6 5 5 5 5 5 5 5 5 5 5 5 5 5 6 6 6 5 6 6 6 6 6 6 6
Wind_Direction
258 262 247 244 235 221 221 230 244 257 263 275 288 293 297 301 295 274 252 238 222 209 205 202 198 198 192 190 186 183 185 188 196 202 204 204 204 202 201 208 214 215 218 223
259 252 250 257 250 236 234 239 247 261 269 282 289 289 292 293 281 261 252 244 234 222 211 203 202 198 188 188 185 185 189 192 193 195 197 205 207 205 208 215 219 221 226 229
257 257 272 261 246 230 225 228 234 247 262 278 277 282 287 283 272 265 256 242 233 225 215 210 205 197 190 186 181 187 191 191 194 198 204 210 208 209 215 221 223 227 232 233
252 242 243 256 108 209 218 231 228 246 272 279 277 285 289 278 274 271 264 246 234 226 218 212 203 195 189 182 184 188 192 195 199 203 208 211 213 218 223 225 228 234 237 239
218 239 262 269 198 192 210 239 242 251 270 287 296 288 287 296 287 276 272 257 240 227 216 208 200 191 185 187 190 194 200 201 203 205 205 208 216 224 227 228 234 237 241 242
219 232 245 281 360 236 188 233 290 267 277 292 296 271 297 324 304 290 284 268 241 220 200 198 197 187 188 194 197 206 209 208 206 203 203 208 216 225 227 227 234 236 240 243
226 237 255 312 5 156 203 286 351 291 282 273 271 288 313 315 310 303 295 283 252 217 209 210 196 187 194 202 214 219 211 203 205 206 206 210 212 219 217 218 224 231 240 247
218 230 245 68 126 183 300 7 355 332 312 297 298 309 310 312 317 318 314 305 260 220 228 226 202 195 202 219 224 212 204 206 211 212 208 207 208 213 214 215 221 231 238 248
214 229 352 138 199 298 336 329 333 327 317 310 305 305 308 313 318 323 322 301 266 220 224 235 221 210 213 225 214 203 205 209 210 209 209 205 206 210 212 215 224 233 238 245
251 264 298 303 297 320 315 312 317 316 312 308 309 310 308 308 307 310 310 293 270 241 236 252 251 242 232 218 204 203 211 214 209 209 213 212 212 211 216 218 223 231 238 246
261 278 304 289 296 312 319 319 317 316 310 303 306 305 304 305 304 301 299 296 278 256 254 265 269 266 259 228 206 209 218 221 221 221 220 221 225 228 229 232 232 234 240 244
257 266 272 289 307 310 306 307 303 306 314 312 306 303 309 308 310 312 309 304 289 279 276 278 276 276 274 249 225 215 220 226 229 227 226 228 234 254 246 242 249 249 250 249
265 279 277 283 293 299 300 305 304 301 302 312 320 316 310 313 316 317 310 298 286 283 283 283 280 279 273 253 231 226 228 230 233 233 233 234 234 241 262 261 242 244 245 247
282 281 276 282 291 303 305 305 307 313 315 317 323 326 318 313 313 311 305 300 298 293 290 289 287 283 279 253 235 238 240 239 235 236 234 235 236 238 242 250 262 265 250 246
295 285 278 295 313 325 328 332 332 324 323 329 334 331 319 306 301 300 302 303 302 297 293 291 287 288 288 264 249 248 246 244 241 241 238 236 237 238 241 244 249 257 264 257
305 309 303 301 304 313 324 324 312 306 309 313 316 314 309 302 301 303 302 300 288 287 289 288 286 289 288 271 262 260 256 249 247 247 246 242 239 239 242 244 248 252 254 256
334 329 324 318 313 311 307 299 293 294 295 293 296 302 309 309 309 308 303 295 283 281 281 278 280 287 279 266 264 264 263 259 245 245 246 247 246 246 246 247 250 255 258 258
327 315 310 301 301 303 305 306 300 297 294 295 299 298 298 295 292 296 298 298 294 291 285 278 277 278 274 269 266 262 257 257 253 250 250 248 249 249 249 251 253 257 262 261
350 342 337 331 322 312 309 306 302 300 302 302 298 294 292 286 286 290 294 291 286 287 293 294 289 282 277 271 268 260 256 256 257 254 252 250 252 251 250 250 253 256 259 260
349 346 345 342 339 333 324 321 315 308 306 305 300 296 295 293 292 290 287 279 273 279 290 291 288 282 276 271 266 260 256 254 255 255 252 250 250 252 251 251 253 256 258 257
339 339 338 336 333 329 323 319 316 310 311 308 297 293 294 297 293 285 281 287 296 303 296 288 285 283 281 279 272 266 261 258 256 254 254 254 254 254 254 253 253 255 256 257
328 327 326 326 325 322 321 315 306 302 304 302 298 295 296 297 296 289 275 275 290 304 306 296 292 290 291 288 275 268 265 262 260 260 258 257 256 256 256 257 257 257 257 259
321 320 321 322 319 317 317 314 308 304 302 302 300 297 293 292 291 286 291 298 302 304 304 294 296 296 296 292 279 271 267 264 262 260 259 259 258 259 260 261 261 260 260 262
320 320 319 319 319 317 316 317 317 311 305 302 297 294 292 293 293 285 284 293 301 302 298 295 299 298 297 289 279 274 271 269 267 265 263 262 260 259 260 261 264 265 264 265
319 317 317 318 318 315 314 317 319 318 316 311 306 303 296 287 286 295 298 297 301 304 300 298 299 300 297 286 281 277 274 270 268 268 263 261 260 260 260 261 262 265 266 266
319 316 313 312 311 312 316 318 318 318 317 315 314 312 310 306 299 296 295 297 298 301 300 297 297 297 290 284 281 279 278 278 276 271 266 265 264 264 263 263 265 265 266 266
325 324 322 323 325 325 321 317 313 314 314 311 309 309 310 310 307 307 305 303 303 302 300 297 295 292 289 286 285 283 280 277 274 271 268 265 264 263 263 264 266 267 266 267
Height
1462 1461 1463 1461 1461 1465 1466 1459 1455 1445 1444 1442 1444 1446 1446 1446 1445 1445 1444 1444 1444 1444 1445 1446 1447 1449 1450 1452 1454 1455 1457 1459 1461 1462 1464 1465 1466 1467 1468 1469 1470 1471 1471 1471
1463 1460 1460 1458 1455 1456 1456 1455 1451 1447 1443 1444 1445 1446 1445 1444 1443 1442 1442 1441 1441 1442 1443 1443 1445 1446 1447 1449 1451 1453 1454 1456 1458 1459 1461 1462 1463 1464 1465 1465 1466 1467 1467 1467
1456 1457 1457 1450 1445 1447 1448 1448 1447 1445 1443 1443 1444 1443 1442 1442 1441 1440 1439 1439 1439 1439 1440 1441 1442 1443 1445 1447 1449 1450 1452 1453 1455 1456 1457 1458 1459 1460 1461 1461 1462 1462 1463 1463
1457 1458 1454 1438 1442 1442 1442 1444 1445 1444 1443 1443 1442 1442 1441 1440 1439 1438 1437 1437 1437 1437 1438 1439 1440 1441 1443 1445 1446 1448 1449 1450 1452 1453 1454 1454 1455 1456 1457 1457 1458 1458 1458 1459
1456 1449 1438 1438 1442 1443 1442 1441 1442 1442 1441 1441 1440 1439 1437 1437 1436 1436 1435 1435 1435 1435 1435 1436 1437 1438 1440 1442 1443 1444 1446 1447 1448 1449 1450 1451 1451 1452 1452 1453 1453 1454 1454 1454
1452 1448 1440 1435 1440 1440 1442 1438 1440 1440 1439 1439 1439 1436 1435 1435 1434 1433 1433 1432 1432 1432 1433 1434 1435 1436 1437 1439 1440 1441 1442 1444 1445 1446 1446 1447 1447 1448 1448 1449 1449 1450 1450 1450
1447 1444 1436 1439 1441 1440 1440 1436 1439 1438 1438 1438 1438 1437 1436 1434 1432 1431 1430 1430 1430 1430 1431 1431 1433 1434 1435 1436 1437 1438 1439 1440 1441 1442 1443 1443 1444 1444 1444 1445 1446 1446 1446 1446
1444 1443 1440 1440 1441 1440 1438 1439 1438 1437 1437 1436 1436 1434 1433 1432 1430 1429 1428 1428 1428 1428 1429 1429 1430 1431 1432 1433 1434 1435 1436 1436 1437 1438 1439 1440 1440 1441 1441 1441 1441 1441 1441 1441
1439 1439 1440 1440 1439 1439 1439 1438 1437 1436 1436 1435 1434 1432 1431 1430 1429 1428 1427 1427 1427 1427 1427 1427 1428 1429 1429 1430 1431 1432 1432 1433 1434 1435 1436 1436 1437 1437 1437 1437 1437 1437 1437 1437
1440 1439 1440 1439 1438 1438 1438 1437 1436 1435 1434 1433 1432 1431 1429 1428 1427 1425 1425 1425 1425 1425 1424 1425 1425 1426 1427 1427 1428 1428 1429 1430 1430 1431 1432 1432 1433 1433 1433 1433 1433 1433 1433 1433
1438 1438 1438 1437 1437 1437 1436 1435 1434 1433 1432 1431 1430 1429 1427 1426 1425 1424 1423 1422 1422 1422 1422 1422 1422 1423 1423 1424 1424 1425 1425 1426 1427 1427 1428 1428 1429 1429 1429 1429 1429 1429 1429 1429
1436 1437 1437 1436 1436 1436 1435 1433 1432 1431 1430 1429 1428 1426 1425 1424 1423 1422 1421 1420 1420 1420 1419 1419 1419 1420 1420 1421 1421 1421 1422 1422 1423 1423 1424 1424 1424 1425 1425 1425 1425 1425 1424 1424
1435 1435 1435 1435 1434 1434 1433 1432 1430 1429 1428 1427 1425 1424 1423 1422 1421 1420 1419 1419 1418 1418 1417 1417 1417 1417 1417 1417 1418 1418 1418 1418 1419 1419 1420 1420 1420 1420 1420 1420 1420 1420 1420 1420
1433 1433 1432 1432 1431 1431 1430 1429 1428 1427 1426 1425 1424 1423 1422 1420 1419 1418 1418 1417 1416 1416 1415 1414 1414 1414 1414 1414 1414 1414 1414 1414 1415 1415 1416 1416 1416 1416 1416 1415 1415 1414 1415 1415
1431 1431 1430 1429 1428 1428 1427 1426 1425 1424 1423 1423 1422 1421 1420 1419 1418 1417 1416 1415 1414 1413 1413 1412 1411 1411 1411 1411 1410 1410 1410 1410 1410 1411 1411 1411 1411 1411 1411 1411 1410 1410 1409 1409
1429 1428 1427 1427 1426 1425 1425 1424 1423 1422 1421 1420 1419 1419 1418 1417 1416 1415 1414 1413 1412 1411 1411 1410 1409 1408 1408 1407 1407 1407 1406 1406 1407 1407 1407 1407 1407 1406 1406 1406 1405 1405 1404 1404
1427 1426 1425 1425 1424 1423 1422 1422 1421 1420 1419 1418 1417 1416 1416 1415 1414 1413 1412 1411 1410 1409 1408 1407 1406 1405 1405 1404 1404 1403 1403 1403 1403 1402 1402 1402 1402 1402 1401 1401 1400 1400 1399 1399
1427 1426 1425 1423 1422 1421 1420 1419 1418 1417 1416 1415 1414 1413 1412 1411 1411 1410 1409 1408 1407 1406 1405 1404 1403 1402 1402 1401 1400 1400 1399 1399 1399 1398 1398 1398 1397 1397 1396 1396 1395 1395 1394 1394
1425 1424 1422 1421 1420 1418 1417 1416 1415 1415 1413 1412 1411 1410 1409 1408 1407 1406 1405 1404 1403 1402 1401 1401 1400 1399 1398 1397 1397 1396 1395 1395 1394 1394 1394 1393 1393 1392 1392 1391 1390 1390 1389 1389
1424 1423 1421 1420 1418 1417 1415 1414 1413 1412 1411 1410 1408 1407 1406 1405 1404 1403 1402 1401 1400 1399 1398 1397 1396 1395 1395 1394 1393 1392 1392 1391 1390 1390 1389 1388 1388 1387 1387 1386 1386 1385 1384 1384
1423 1421 1419 1418 1416 1415 1414 1412 1410 1409 1408 1407 1405 1404 1402 1401 1400 1399 1398 1397 1396 1395 1394 1393 1392 1392 1391 1390 1389 1388 1387 1387 1386 1385 1384 1384 1383 1382 1382 1381 1381 1380 1379 1379
1422 1420 1418 1416 1414 1412 1411 1409 1408 1406 1405 1403 1402 1401 1399 1398 1397 1395 1394 1394 1392 1391 1390 1389 1388 1387 1387 1386 1385 1384 1383 1382 1381 1380 1380 1379 1378 1377 1377 1376 1376 1375 1374 1374
1419 1417 1415 1413 1411 1409 1408 1406 1405 1403 1401 1400 1398 1397 1396 1394 1393 1392 1391 1390 1388 1387 1386 1385 1384 1383 1382 1381 1380 1379 1378 1377 1376 1375 1375 1374 1373 1373 1372 1371 1371 1370 1369 1369
1417 1415 1413 1411 1409 1406 1404 1403 1401 1399 1398 1396 1395 1394 1392 1391 1389 1388 1387 1385 1384 1383 1382 1380 1379 1378 1377 1376 1375 1374 1373 1372 1371 1370 1370 1369 1368 1368 1367 1366 1366 1365 1364 1363
1414 1412 1409 1407 1405 1403 1401 1399 1397 1396 1394 1393 1391 1390 1389 1387 1386 1384 1383 1381 1380 1378 1377 1376 1375 1374 1373 1371 1370 1369 1368 1367 1366 1365 1364 1364 1363 1363 1362 1361 1360 1360 1359 1358
1411 1409 1407 1405 1403 1401 1399 1397 1394 1393 1391 1389 1388 1386 1385 1383 1382 1380 1378 1377 1375 1374 1372 1371 1370 1369 1368 1366 1365 1364 1363 1362 1361 1360 1359 1359 1358 1357 1356 1356 1355 1354 1353 1353
1408 1406 1404 1402 1400 1398 1396 1394 1392 1390 1388 1386 1384 1382 1381 1379 1377 1375 1374 1372 1370 1369 1368 1366 1365 1364 1363 1361 1360 1359 1358 1357 1356 1355 1354 1353 1352 1351 1351 1350 1349 1349 1348 1347